Вернуться в каталог

COSMOS 1375 DEB

АктивенLEO
NORAD 17090·DEBRIS·🇷🇺 Russia

Запущен Jun 6, 1982 с Plesetsk Cosmodrome

Loading…

Ближайшие Пролёты (ближайшие 24 часа)

TLE

СвежийSource: Space-Track

Эпоха: Sep 13, 2026, 17:16 UTC

1 17090U 82055AC  26256.72012988 -.00000053  00000-0  26396-4 0  9994
2 17090  65.8381 357.5594 0053870 328.4922 193.4019 13.84042622 63885

Отслеживайте COSMOS 1375 DEB в реальном времени с AllMySat

Download on the App Store